Flag for U.S.A. Weather past 2 weeks in Decatur, Illinois, U.S.A.

Now
40 °F

Clear.


Feels Like: 36 °F
Forecast: 38 / 60 °F
Wind: 6 mph from Northeast

Location: Decatur Airport

Current Time: Oct 22, 2014 at 1:51:49 AM

Latest Report: Oct 22, 2014 at 12:54 AM


Visibility: 10 mi

Pressure: 30.25 "Hg

Humidity: 89%

Dew point: 37 °F

Location of DecaturLocation

Historic Weather in Decatur — Graph

°F

Decatur temperature yesterday

Maximum temperature yesterday: 61 °F (at 2:54 PM)
Minimum temperature yesterday: 40 °F (at 10:54 PM)
Average temperature yesterday: 49 °F

Past Weeks' High & Low Weather Summary

 TemperatureHumidityPressure
High72 °F (Oct 7, 4:54 PM)100% (Oct 13, 4:01 AM)30.26 "Hg (Oct 13, 4:01 AM)
Low36 °F (Oct 12, 1:54 AM)29% (Oct 7, 5:54 PM)29.45 "Hg (Oct 14, 9:54 AM)
Average55 °F78%29.94 "Hg
* Reported Oct 6 11:54 PM — Oct 21 11:54 PM, Decatur, Weather by CustomWeather, © 2014

Note: Actual official high and low records may vary slightly from our data, if they occured in-between our weather recording intervals... More about our weather records

Advertising

Decatur weather history for previous 24 hours

 ConditionsComfort  
Time TempWeatherWind HumidityBarometerVisibility
11:54 PM
Oct 21
40 °FClear.5 mph89%30.24 "Hg10 mi
10:54 PM40 °FClear.7 mph93%30.25 "Hg10 mi
9:54 PM42 °FClear.8 mph85%30.24 "Hg10 mi
8:54 PM43 °FClear.7 mph89%30.22 "Hg10 mi
7:54 PM48 °FClear.10 mph80%30.20 "Hg10 mi
6:54 PM50 °FSunny.13 mph68%30.18 "Hg10 mi
5:54 PM53 °FSunny.12 mph61%30.16 "Hg10 mi
4:54 PM59 °FSunny.13 mph48%30.15 "Hg10 mi
3:54 PM60 °FSunny.12 mph46%30.14 "Hg10 mi
2:54 PM61 °FSunny.10 mph48%30.14 "Hg10 mi
1:54 PM60 °FSunny.12 mph53%30.14 "Hg10 mi
12:54 PM60 °FPassing clouds.12 mph56%30.15 "Hg10 mi
11:54 AM57 °FScattered clouds.10 mph60%30.16 "Hg10 mi
10:54 AM56 °FSunny.10 mph62%30.15 "Hg10 mi
9:54 AM54 °FSunny.12 mph74%30.15 "Hg10 mi
8:54 AM50 °FSunny.9 mph83%30.14 "Hg10 mi
7:54 AM45 °FClear.6 mph90%30.11 "Hg9 mi
7:03 AM44 °FFog.6 mph93%30.09 "Hg4 mi
6:54 AM43 °FFog.5 mph93%30.09 "Hg2 mi
5:54 AM45 °FFog.3 mph97%30.07 "Hg5 mi
4:54 AM43 °FClear.No wind93%30.05 "Hg9 mi
3:54 AM42 °FClear.No wind89%30.03 "Hg10 mi
2:54 AM45 °FClear.No wind90%30.03 "Hg10 mi
1:54 AM45 °FClear.6 mph90%30.02 "Hg10 mi
Weather by CustomWeather, © 2014

See weather overviewHow to use our weather pages